Regional Weather Roundup
Issued by NWS

Home | Current Version | Previous Version | Text Only | Print | Product List | Glossary Off
Versions: 1 2 3 4 5 6 7 8 9 10 11 12 13 14 15 16 17 18 19 20 21 22 23 24 25 26 27 28 29 30 31 32 33 34 35 36 37 38 39 40 41 42 43 44 45 46 47 48 49 50

000
ASUS45 KABQ 291601
RWRNM
WEATHER ROUNDUP FOR NEW MEXICO
NATIONAL WEATHER SERVICE ALBUQUERQUE NM
1000 AM MDT TUE JUL 29 2014

NOTE: "FAIR" MEANS FEW OR NO CLOUDS BELOW 12,000 FEET AGL WITH NO
       SIGNIFICANT WEATHER OR OBSTRUCTIONS TO VISION.

      THIS PRODUCT IS RELEASED AS TWO VERSIONS.  ONE VERSION NEAR
      THE TOP OF THE HOUR CONTAINING PRELIMINARY DATA FROM ALBUQUERQUE
      AND OTHER STATIONS.  A FINAL VERSION WITH ADDITIONAL DATA IS
      ISSUED ABOUT 10 MINUTES AFTER THE HOUR.

NMZ501-503-504-510>518-291700-
NORTHWEST PLATEAU/NORTHCENTRAL MOUNTAINS

CITY           SKY/WX    TMP DP  RH WIND       PRES   REMARKS
FARMINGTON     PTSUNNY   70  59  68 NW5       30.31F
LOS ALAMOS     PTSUNNY   62  58  86 SE3       30.44S
SANTA FE       CLOUDY    65  59  81 S8        30.38F
TAOS           PTSUNNY   64  54  68 NW5       30.43S
ANGEL FIRE     FAIR      62  53  70 CALM      30.48F

$$
NMZ402-403-502-505>509-291700-
WESTCENTRAL MOUNTAINS/SOUTHWEST MOUNTAINS

CITY           SKY/WX    TMP DP  RH WIND       PRES   REMARKS
GALLUP         MOSUNNY   68  57  68 VRB3      30.38F

$$
NMZ407-409-411-412-291700-
SOUTHERN DESERTS

CITY           SKY/WX    TMP DP  RH WIND       PRES   REMARKS
LORDSBURG      FAIR      81  59  47 SE9       30.23S
DEMING         PTSUNNY   79  61  53 E9        30.24F
LAS CRUCES     PTSUNNY   74  62  64 SE3       30.27S
HOLLOMAN AFB   PTSUNNY   72  68  88 S7        30.25F
T OR C         MOSUNNY   77  28  16 CALM      30.27F

$$
NMZ519>523-291700-
CENTRAL VALLEYS/CENTRAL HIGHLANDS

CITY           SKY/WX    TMP DP  RH WIND       PRES   REMARKS
ALBUQUERQUE    PTSUNNY   70  60  70 SW3       30.33F
DOUBLE EAGLE   PTSUNNY   68  61  77 CALM      30.36F
CLINES CORNERS CLOUDY    63  58  83 SW9       30.41F
BELEN          FAIR      73  61  66 S7        30.31F
SOCORRO        FAIR      75  60  61 SE9       30.29S

$$
NMZ524>526-539-540-291700-
SOUTHCENTRAL MOUNTAINS

CITY           SKY/WX    TMP DP  RH WIND       PRES   REMARKS
RUIDOSO        NOT AVBL

$$
NMZ527>531-291700-
NORTHEAST HIGHLANDS/NORTHEAST PLAINS

CITY           SKY/WX    TMP DP  RH WIND       PRES   REMARKS
LAS VEGAS      CLOUDY    60  58  92 S15       30.41S
RATON          CLOUDY    65  59  81 S3        30.34F
CLAYTON        CLOUDY    71  62  73 SW15      30.28S

$$
NMZ532>537-291700-
EASTCENTRAL PLAINS

CITY           SKY/WX    TMP DP  RH WIND       PRES   REMARKS
TUCUMCARI      LGT RAIN  67  62  84 SW6       30.26S
CANNON AFB     NOT AVBL
CLOVIS AIRPORT NOT AVBL

$$
NMZ028-029-538-291700-
SOUTHEAST PLAINS

CITY           SKY/WX    TMP DP  RH WIND       PRES   REMARKS
ROSWELL        LGT RAIN  69  67  93 NE6       30.29R
ARTESIA        CLOUDY    72  66  83 N17       30.27R
CARLSBAD       PTSUNNY   81  60  48 N8        30.21R
HOBBS          MOSUNNY   75  59  57 NE9G16    30.26F


$$


USA.gov is the U.S. government's official web portal to all federal, state and local government web resources and services.